Time,TemperatureF,DewpointF,PressureIn,WindDirection,WindDirectionDegrees,WindSpeedMPH,WindSpeedGustMPH,Humidity,HourlyPrecipIn,Conditions,Clouds,dailyrainin,SoftwareType,DateUTC
2013-06-14 00:03:00,67.1,52.5,30.01,SE,139,0.0,5.4,60,0.00,,CLR,0.00,VWS V14.01,2013-06-14 05:03:00,
2013-06-14 00:08:00,66.7,52.2,30.01,North,10,5.4,8.1,60,0.00,,CLR,0.00,VWS V14.01,2013-06-14 05:08:00,
2013-06-14 00:13:00,66.4,51.9,30.01,NE,49,4.0,10.1,60,0.00,,CLR,0.00,VWS V14.01,2013-06-14 05:13:00,
2013-06-14 00:18:00,66.0,53.1,30.01,East,91,5.8,11.0,63,0.00,,CLR,0.00,VWS V14.01,2013-06-14 05:18:00,
2013-06-14 00:23:00,65.8,52.9,30.01,East,89,2.7,10.1,63,0.00,,CLR,0.00,VWS V14.01,2013-06-14 05:23:00,
2013-06-14 00:28:00,65.7,52.7,30.01,ESE,113,5.8,6.3,63,0.00,,CLR,0.00,VWS V14.01,2013-06-14 05:28:00,
2013-06-14 00:33:00,65.3,52.4,30.01,NE,53,4.9,7.6,63,0.00,,CLR,0.00,VWS V14.01,2013-06-14 05:33:00,
2013-06-14 00:38:00,65.3,52.4,30.01,East,92,3.1,5.8,63,0.00,,CLR,0.00,VWS V14.01,2013-06-14 05:38:00,
2013-06-14 00:43:00,65.3,52.4,30.01,ESE,110,3.1,11.0,63,0.00,,CLR,0.00,VWS V14.01,2013-06-14 05:43:00,
2013-06-14 00:49:00,65.1,52.2,30.01,ESE,115,5.8,8.1,63,0.00,,CLR,0.00,VWS V14.01,2013-06-14 05:49:00,
2013-06-14 00:54:00,64.9,52.1,30.01,North,7,3.1,6.3,63,0.00,,CLR,0.00,VWS V14.01,2013-06-14 05:54:00,
2013-06-14 00:59:00,64.8,51.9,30.01,NE,43,4.0,5.8,63,0.00,,CLR,0.00,VWS V14.01,2013-06-14 05:59:00,
2013-06-14 01:04:00,64.8,51.9,30.01,NE,39,3.1,6.3,63,0.00,,CLR,0.00,VWS V14.01,2013-06-14 06:04:00,
2013-06-14 01:09:00,64.6,51.7,30.01,ENE,75,4.9,6.3,63,0.00,,CLR,0.00,VWS V14.01,2013-06-14 06:09:00,
2013-06-14 01:14:00,64.4,51.5,30.01,North,357,4.0,6.3,63,0.00,,CLR,0.00,VWS V14.01,2013-06-14 06:14:00,
2013-06-14 01:19:00,64.2,51.4,30.01,NE,49,4.9,5.4,63,0.00,,CLR,0.00,VWS V14.01,2013-06-14 06:19:00,
2013-06-14 01:24:00,63.9,51.0,30.01,NE,42,0.0,7.6,63,0.00,,CLR,0.00,VWS V14.01,2013-06-14 06:24:00,
2013-06-14 01:29:00,63.7,50.9,30.01,NE,56,3.1,5.4,63,0.00,,CLR,0.00,VWS V14.01,2013-06-14 06:29:00,
2013-06-14 01:34:00,63.5,50.7,30.01,ESE,123,0.0,3.6,63,0.00,,CLR,0.00,VWS V14.01,2013-06-14 06:34:00,
2013-06-14 01:39:00,63.5,50.7,30.01,NNE,30,0.0,4.9,63,0.00,,CLR,0.00,VWS V14.01,2013-06-14 06:39:00,
2013-06-14 01:44:00,63.1,50.3,30.01,NNE,21,3.6,5.4,63,0.00,,CLR,0.00,VWS V14.01,2013-06-14 06:44:00,
2013-06-14 01:50:00,63.1,50.3,30.04,North,0,0.0,7.6,63,0.00,,CLR,0.00,VWS V14.01,2013-06-14 06:50:00,
2013-06-14 01:55:00,63.0,50.2,30.04,NE,38,0.0,4.0,63,0.00,,CLR,0.00,VWS V14.01,2013-06-14 06:55:00,
2013-06-14 02:00:00,63.0,50.2,30.04,North,353,4.0,5.8,63,0.00,,CLR,0.00,VWS V14.01,2013-06-14 07:00:00,
2013-06-14 02:05:00,63.0,50.2,30.04,SE,138,0.0,4.0,63,0.00,,CLR,0.00,VWS V14.01,2013-06-14 07:05:00,
2013-06-14 02:10:00,63.0,50.2,30.04,East,87,0.0,4.0,63,0.00,,CLR,0.00,VWS V14.01,2013-06-14 07:10:00,
2013-06-14 02:15:00,63.0,50.2,30.04,East,95,0.0,4.0,63,0.00,,CLR,0.00,VWS V14.01,2013-06-14 07:15:00,
2013-06-14 02:20:00,63.0,50.2,30.04,East,92,5.8,5.8,63,0.00,,CLR,0.00,VWS V14.01,2013-06-14 07:20:00,
2013-06-14 02:25:00,63.0,50.2,30.04,NE,56,6.3,6.7,63,0.00,,CLR,0.00,VWS V14.01,2013-06-14 07:25:00,
2013-06-14 02:30:00,63.0,50.2,30.04,North,350,3.1,8.1,63,0.00,,CLR,0.00,VWS V14.01,2013-06-14 07:30:00,
2013-06-14 02:35:00,63.0,50.2,30.04,East,82,3.1,5.8,63,0.00,,CLR,0.00,VWS V14.01,2013-06-14 07:35:00,
2013-06-14 02:40:00,63.0,50.2,30.04,South,170,3.1,7.6,63,0.00,,CLR,0.00,VWS V14.01,2013-06-14 07:40:00,
2013-06-14 02:45:00,63.0,50.2,30.04,NE,45,5.4,7.6,63,0.00,,CLR,0.00,VWS V14.01,2013-06-14 07:45:00,
2013-06-14 02:50:00,63.0,50.2,30.04,East,85,3.6,5.8,63,0.00,,CLR,0.00,VWS V14.01,2013-06-14 07:50:00,
2013-06-14 02:55:00,62.8,50.0,30.04,NE,44,0.0,4.9,63,0.00,,CLR,0.00,VWS V14.01,2013-06-14 07:55:00,
2013-06-14 03:00:00,62.6,49.8,30.04,NNE,15,3.1,10.1,63,0.00,,CLR,0.00,VWS V14.01,2013-06-14 08:00:00,
2013-06-14 03:05:00,62.4,51.1,30.04,NNE,12,5.8,8.1,66,0.00,,CLR,0.00,VWS V14.01,2013-06-14 08:05:00,
2013-06-14 03:10:00,62.4,51.1,30.04,NE,35,4.9,4.9,66,0.00,,CLR,0.00,VWS V14.01,2013-06-14 08:10:00,
2013-06-14 03:15:00,62.2,51.0,30.04,NNE,33,0.0,0.0,66,0.00,,CLR,0.00,VWS V14.01,2013-06-14 08:15:00,
2013-06-14 03:20:00,62.1,50.8,30.04,SSE,158,4.9,6.3,66,0.00,,CLR,0.00,VWS V14.01,2013-06-14 08:20:00,
2013-06-14 03:25:00,61.9,50.6,30.04,NE,55,5.4,5.4,66,0.00,,CLR,0.00,VWS V14.01,2013-06-14 08:25:00,
2013-06-14 03:30:00,61.7,50.4,30.07,North,11,0.0,4.0,66,0.00,,CLR,0.00,VWS V14.01,2013-06-14 08:30:00,
2013-06-14 03:35:00,61.5,50.3,30.07,NE,45,0.0,3.1,66,0.00,,CLR,0.00,VWS V14.01,2013-06-14 08:35:00,
2013-06-14 03:40:00,61.3,50.1,30.07,NNW,341,0.0,0.0,66,0.00,,CLR,0.00,VWS V14.01,2013-06-14 08:40:00,
2013-06-14 03:46:00,61.3,50.1,30.07,East,87,4.0,4.0,66,0.00,,CLR,0.00,VWS V14.01,2013-06-14 08:46:00,
2013-06-14 03:51:00,61.3,50.1,30.07,NE,54,0.0,2.2,66,0.00,,CLR,0.00,VWS V14.01,2013-06-14 08:51:00,
2013-06-14 03:56:00,61.2,49.9,30.07,NE,45,0.0,0.0,66,0.00,,CLR,0.00,VWS V14.01,2013-06-14 08:56:00,
2013-06-14 04:01:00,61.0,49.8,30.07,North,350,0.0,0.0,66,0.00,,CLR,0.00,VWS V14.01,2013-06-14 09:01:00,
2013-06-14 04:06:00,60.8,49.6,30.07,ENE,57,0.0,0.0,66,0.00,,CLR,0.00,VWS V14.01,2013-06-14 09:06:00,
2013-06-14 04:11:00,60.6,49.4,30.07,East,83,3.1,3.6,66,0.00,,CLR,0.00,VWS V14.01,2013-06-14 09:11:00,
2013-06-14 04:16:00,60.6,49.4,30.04,NW,326,5.4,5.4,66,0.00,,CLR,0.00,VWS V14.01,2013-06-14 09:16:00,
2013-06-14 04:21:00,60.4,49.2,30.04,NE,43,0.0,0.0,66,0.00,,CLR,0.00,VWS V14.01,2013-06-14 09:21:00,
2013-06-14 04:26:00,60.3,49.1,30.04,North,7,0.0,5.4,66,0.00,,CLR,0.00,VWS V14.01,2013-06-14 09:26:00,
2013-06-14 04:31:00,60.1,48.9,30.07,NNW,337,0.0,0.0,66,0.00,,CLR,0.00,VWS V14.01,2013-06-14 09:31:00,
2013-06-14 04:36:00,59.9,48.7,30.07,NNW,337,0.0,0.0,66,0.00,,CLR,0.00,VWS V14.01,2013-06-14 09:36:00,
2013-06-14 04:42:00,59.9,48.7,30.07,North,5,0.0,0.0,66,0.00,,CLR,0.00,VWS V14.01,2013-06-14 09:42:00,
2013-06-14 04:47:00,59.7,48.6,30.07,North,4,0.0,0.0,66,0.00,,CLR,0.00,VWS V14.01,2013-06-14 09:47:00,
2013-06-14 04:52:00,59.7,48.6,30.07,North,1,0.0,0.0,66,0.00,,CLR,0.00,VWS V14.01,2013-06-14 09:52:00,
2013-06-14 04:57:00,59.5,48.4,30.07,NNE,17,0.0,0.0,66,0.00,,CLR,0.00,VWS V14.01,2013-06-14 09:57:00,
2013-06-14 05:02:00,59.5,48.4,30.07,North,0,2.2,4.0,66,0.00,,CLR,0.00,VWS V14.01,2013-06-14 10:02:00,
2013-06-14 05:07:00,59.4,48.2,30.07,NNW,327,0.0,0.0,66,0.00,,CLR,0.00,VWS V14.01,2013-06-14 10:07:00,
2013-06-14 05:12:00,59.4,48.2,30.07,NNW,341,0.0,0.0,66,0.00,,CLR,0.00,VWS V14.01,2013-06-14 10:12:00,
2013-06-14 05:17:00,59.2,48.0,30.07,NNW,332,0.0,0.0,66,0.00,,CLR,0.00,VWS V14.01,2013-06-14 10:17:00,
2013-06-14 05:22:00,59.2,48.0,30.07,ENE,74,0.0,2.2,66,0.00,,CLR,0.00,VWS V14.01,2013-06-14 10:22:00,
2013-06-14 05:27:00,59.2,48.0,30.07,NNE,14,2.7,5.8,66,0.00,,CLR,0.00,VWS V14.01,2013-06-14 10:27:00,
2013-06-14 05:32:00,59.2,48.0,30.07,North,7,0.0,3.6,66,0.00,,CLR,0.00,VWS V14.01,2013-06-14 10:32:00,
2013-06-14 05:37:00,59.2,48.0,30.07,NW,306,0.0,4.9,66,0.00,,CLR,0.00,VWS V14.01,2013-06-14 10:37:00,
2013-06-14 05:43:00,59.2,48.0,30.07,ENE,59,0.0,5.4,66,0.00,,CLR,0.00,VWS V14.01,2013-06-14 10:43:00,
2013-06-14 05:48:00,59.2,48.0,30.07,NNE,18,0.0,2.7,66,0.00,,CLR,0.00,VWS V14.01,2013-06-14 10:48:00,
2013-06-14 05:53:00,59.4,48.2,30.07,North,350,0.0,4.5,66,0.00,,CLR,0.00,VWS V14.01,2013-06-14 10:53:00,
2013-06-14 05:58:00,59.4,48.2,30.07,NNE,15,0.0,0.0,66,0.00,,CLR,0.00,VWS V14.01,2013-06-14 10:58:00,
2013-06-14 06:03:00,59.4,48.2,30.07,North,353,0.0,4.9,66,0.00,,CLR,0.00,VWS V14.01,2013-06-14 11:03:00,
2013-06-14 06:08:00,59.4,48.2,30.07,North,8,0.0,2.7,66,0.00,,CLR,0.00,VWS V14.01,2013-06-14 11:08:00,
2013-06-14 06:13:00,59.4,48.2,30.07,North,357,0.0,3.6,66,0.00,,CLR,0.00,VWS V14.01,2013-06-14 11:13:00,
2013-06-14 06:18:00,59.4,48.2,30.10,NNE,21,0.0,4.5,66,0.00,,CLR,0.00,VWS V14.01,2013-06-14 11:18:00,
2013-06-14 06:23:00,59.4,48.2,30.10,NNW,327,2.2,3.1,66,0.00,,CLR,0.00,VWS V14.01,2013-06-14 11:23:00,
2013-06-14 06:28:00,59.4,48.2,30.10,NNW,332,0.0,3.6,66,0.00,,CLR,0.00,VWS V14.01,2013-06-14 11:28:00,
2013-06-14 06:33:00,59.4,48.2,30.10,NW,319,0.0,4.9,66,0.00,,CLR,0.00,VWS V14.01,2013-06-14 11:33:00,
2013-06-14 06:38:00,59.4,48.2,30.10,NNW,331,2.7,4.0,66,0.00,,CLR,0.00,VWS V14.01,2013-06-14 11:38:00,
2013-06-14 06:44:00,59.5,48.4,30.10,ESE,115,0.0,3.6,66,0.00,,CLR,0.00,VWS V14.01,2013-06-14 11:44:00,
2013-06-14 06:49:00,59.7,48.6,30.10,North,353,0.0,0.0,66,0.00,,CLR,0.00,VWS V14.01,2013-06-14 11:49:00,
2013-06-14 06:54:00,59.9,48.7,30.10,NNW,328,3.1,5.8,66,0.00,,CLR,0.00,VWS V14.01,2013-06-14 11:54:00,
2013-06-14 06:59:00,60.1,48.9,30.10,NW,323,0.0,0.0,66,0.00,,CLR,0.00,VWS V14.01,2013-06-14 11:59:00,
2013-06-14 07:04:00,60.3,49.1,30.10,North,357,0.0,5.8,66,0.00,,CLR,0.00,VWS V14.01,2013-06-14 12:04:00,
2013-06-14 07:09:00,60.4,49.2,30.10,NW,315,0.0,3.6,66,0.00,,CLR,0.00,VWS V14.01,2013-06-14 12:09:00,
2013-06-14 07:14:00,60.6,49.4,30.10,NNW,348,0.0,3.1,66,0.00,,CLR,0.00,VWS V14.01,2013-06-14 12:14:00,
2013-06-14 07:19:00,61.0,49.8,30.10,SE,125,0.0,0.0,66,0.00,,CLR,0.00,VWS V14.01,2013-06-14 12:19:00,
2013-06-14 07:24:00,61.2,49.9,30.10,NE,44,0.0,0.0,66,0.00,,CLR,0.00,VWS V14.01,2013-06-14 12:24:00,
2013-06-14 07:29:00,61.3,50.1,30.10,North,357,0.0,3.1,66,0.00,,CLR,0.00,VWS V14.01,2013-06-14 12:29:00,
2013-06-14 07:34:00,61.7,50.4,30.10,North,1,0.0,0.0,66,0.00,,CLR,0.00,VWS V14.01,2013-06-14 12:34:00,
2013-06-14 07:40:00,61.9,50.6,30.10,NNW,328,4.9,5.8,66,0.00,,CLR,0.00,VWS V14.01,2013-06-14 12:40:00,
2013-06-14 07:45:00,62.2,51.0,30.10,North,353,0.0,4.0,66,0.00,,CLR,0.00,VWS V14.01,2013-06-14 12:45:00,
2013-06-14 07:50:00,62.8,50.0,30.10,NNW,327,0.0,6.3,63,0.00,,CLR,0.00,VWS V14.01,2013-06-14 12:50:00,
2013-06-14 07:55:00,63.3,50.5,30.10,East,87,0.0,4.0,63,0.00,,CLR,0.00,VWS V14.01,2013-06-14 12:55:00,
2013-06-14 08:00:00,64.0,51.2,30.10,NE,37,0.0,4.0,63,0.00,,CLR,0.00,VWS V14.01,2013-06-14 13:00:00,
2013-06-14 08:05:00,64.0,51.2,30.10,SSW,211,0.0,4.0,63,0.00,,CLR,0.00,VWS V14.01,2013-06-14 13:05:00,
2013-06-14 08:10:00,64.4,51.5,30.10,WNW,292,3.6,5.4,63,0.00,,CLR,0.00,VWS V14.01,2013-06-14 13:10:00,
2013-06-14 08:15:00,64.9,52.1,30.13,NE,45,2.7,4.9,63,0.00,,CLR,0.00,VWS V14.01,2013-06-14 13:15:00,
2013-06-14 08:20:00,65.3,52.4,30.13,North,7,4.5,4.5,63,0.00,,CLR,0.00,VWS V14.01,2013-06-14 13:20:00,
2013-06-14 08:25:00,65.7,52.7,30.13,North,0,2.2,2.2,63,0.00,,CLR,0.00,VWS V14.01,2013-06-14 13:25:00,
2013-06-14 08:31:00,66.0,53.1,30.13,NNE,12,4.0,5.8,63,0.00,,CLR,0.00,VWS V14.01,2013-06-14 13:31:00,
2013-06-14 08:36:00,66.4,51.9,30.13,WSW,257,5.4,5.4,60,0.00,,CLR,0.00,VWS V14.01,2013-06-14 13:36:00,
2013-06-14 08:41:00,66.7,52.2,30.13,North,8,0.0,6.3,60,0.00,,CLR,0.00,VWS V14.01,2013-06-14 13:41:00,
2013-06-14 08:46:00,66.9,52.4,30.13,NNE,29,0.0,0.0,60,0.00,,CLR,0.00,VWS V14.01,2013-06-14 13:46:00,
2013-06-14 08:51:00,67.1,52.5,30.13,NNE,31,2.2,4.0,60,0.00,,CLR,0.00,VWS V14.01,2013-06-14 13:51:00,
2013-06-14 08:56:00,67.3,52.7,30.13,NNW,334,3.6,5.4,60,0.00,,CLR,0.00,VWS V14.01,2013-06-14 13:56:00,
2013-06-14 09:01:00,67.3,52.7,30.13,North,353,7.2,8.1,60,0.00,,CLR,0.00,VWS V14.01,2013-06-14 14:01:00,
2013-06-14 09:06:00,67.3,52.7,30.13,NE,46,3.1,4.0,60,0.00,,CLR,0.00,VWS V14.01,2013-06-14 14:06:00,
2013-06-14 09:11:00,67.5,52.9,30.13,East,97,0.0,6.3,60,0.00,,CLR,0.00,VWS V14.01,2013-06-14 14:11:00,
2013-06-14 09:16:00,67.8,53.2,30.13,North,2,0.0,5.8,60,0.00,,CLR,0.00,VWS V14.01,2013-06-14 14:16:00,
2013-06-14 09:21:00,68.4,53.7,30.13,NNW,339,5.4,5.8,60,0.00,,CLR,0.00,VWS V14.01,2013-06-14 14:21:00,
2013-06-14 09:27:00,68.4,53.7,30.13,ESE,104,2.7,5.8,60,0.00,,CLR,0.00,VWS V14.01,2013-06-14 14:27:00,
2013-06-14 09:32:00,68.7,54.1,30.13,NNE,28,3.1,5.8,60,0.00,,CLR,0.00,VWS V14.01,2013-06-14 14:32:00,
2013-06-14 09:37:00,69.1,54.4,30.13,SSE,163,2.2,4.9,60,0.00,,CLR,0.00,VWS V14.01,2013-06-14 14:37:00,
2013-06-14 09:42:00,69.4,54.7,30.13,NE,43,5.4,6.3,60,0.00,,CLR,0.00,VWS V14.01,2013-06-14 14:42:00,
2013-06-14 09:47:00,69.8,55.1,30.10,NW,312,3.6,4.0,60,0.00,,CLR,0.00,VWS V14.01,2013-06-14 14:47:00,
2013-06-14 09:52:00,70.2,58.5,30.10,NNW,340,2.2,5.4,66,0.00,,CLR,0.00,VWS V14.01,2013-06-14 14:52:00,
2013-06-14 09:57:00,70.5,58.8,30.10,ENE,65,0.0,3.1,66,0.00,,CLR,0.00,VWS V14.01,2013-06-14 14:57:00,
2013-06-14 10:02:00,70.9,59.2,30.10,NNE,20,4.9,6.3,66,0.00,,CLR,0.00,VWS V14.01,2013-06-14 15:02:00,
2013-06-14 10:07:00,70.7,59.0,30.10,SE,141,4.0,4.0,66,0.00,,CLR,0.00,VWS V14.01,2013-06-14 15:07:00,
2013-06-14 10:12:00,70.9,56.1,30.10,WNW,298,0.0,5.4,60,0.00,,CLR,0.00,VWS V14.01,2013-06-14 15:12:00,
2013-06-14 10:17:00,71.6,59.9,30.10,ESE,116,4.9,4.9,66,0.00,,CLR,0.00,VWS V14.01,2013-06-14 15:17:00,
2013-06-14 10:23:00,71.8,60.0,30.10,SE,128,4.0,5.8,66,0.00,,CLR,0.00,VWS V14.01,2013-06-14 15:23:00,
2013-06-14 10:28:00,72.1,60.4,30.10,SE,131,0.0,3.6,66,0.00,,CLR,0.00,VWS V14.01,2013-06-14 15:28:00,
2013-06-14 10:33:00,71.8,60.0,30.10,NW,310,0.0,6.3,66,0.00,,CLR,0.00,VWS V14.01,2013-06-14 15:33:00,
2013-06-14 10:38:00,72.0,60.2,30.10,ENE,74,2.7,3.6,66,0.00,,CLR,0.00,VWS V14.01,2013-06-14 15:38:00,
2013-06-14 10:43:00,72.3,60.5,30.10,SSE,153,0.0,0.0,66,0.00,,CLR,0.00,VWS V14.01,2013-06-14 15:43:00,
2013-06-14 10:48:00,72.7,60.9,30.07,WSW,238,0.0,3.6,66,0.00,,CLR,0.00,VWS V14.01,2013-06-14 15:48:00,
2013-06-14 10:53:00,72.9,61.1,30.07,East,82,2.2,5.8,66,0.00,,CLR,0.00,VWS V14.01,2013-06-14 15:53:00,
2013-06-14 10:58:00,72.7,60.9,30.07,SE,134,2.2,6.3,66,0.00,,CLR,0.00,VWS V14.01,2013-06-14 15:58:00,
2013-06-14 11:03:00,73.0,61.2,30.10,East,100,0.0,4.0,66,0.00,,CLR,0.00,VWS V14.01,2013-06-14 16:03:00,
2013-06-14 11:08:00,73.4,60.0,30.10,NNW,331,3.6,4.0,63,0.00,,CLR,0.00,VWS V14.01,2013-06-14 16:08:00,
2013-06-14 11:13:00,73.8,60.4,30.10,ESE,122,2.2,4.0,63,0.00,,CLR,0.00,VWS V14.01,2013-06-14 16:13:00,
2013-06-14 11:19:00,73.9,60.6,30.10,NNE,21,4.0,4.5,63,0.00,,CLR,0.00,VWS V14.01,2013-06-14 16:19:00,
2013-06-14 11:24:00,74.1,60.7,30.10,SSW,207,0.0,3.6,63,0.00,,CLR,0.00,VWS V14.01,2013-06-14 16:24:00,
2013-06-14 11:29:00,74.7,61.2,30.10,SW,222,0.0,0.0,63,0.00,,CLR,0.00,VWS V14.01,2013-06-14 16:29:00,
2013-06-14 11:34:00,75.2,61.8,30.10,SSE,154,0.0,3.6,63,0.00,,CLR,0.00,VWS V14.01,2013-06-14 16:34:00,
2013-06-14 11:39:00,75.6,62.1,30.10,NNW,331,0.0,4.0,63,0.00,,CLR,0.00,VWS V14.01,2013-06-14 16:39:00,
2013-06-14 11:44:00,76.3,62.8,30.10,NNE,14,0.0,2.2,63,0.00,,CLR,0.00,VWS V14.01,2013-06-14 16:44:00,
2013-06-14 11:49:00,76.3,62.8,30.10,South,188,0.0,3.6,63,0.00,,CLR,0.00,VWS V14.01,2013-06-14 16:49:00,
2013-06-14 11:54:00,75.9,62.4,30.10,SSW,205,0.0,4.0,63,0.00,,CLR,0.00,VWS V14.01,2013-06-14 16:54:00,
2013-06-14 11:59:00,76.5,62.9,30.10,NNE,25,0.0,0.0,63,0.00,,CLR,0.00,VWS V14.01,2013-06-14 16:59:00,
2013-06-14 12:04:00,77.4,63.8,30.10,ESE,114,2.7,2.7,63,0.00,,CLR,0.00,VWS V14.01,2013-06-14 17:04:00,
2013-06-14 12:09:00,77.9,64.3,30.10,NE,51,0.0,4.9,63,0.00,,CLR,0.00,VWS V14.01,2013-06-14 17:09:00,
2013-06-14 12:14:00,77.7,64.1,30.10,South,189,0.0,0.0,63,0.00,,CLR,0.00,VWS V14.01,2013-06-14 17:14:00,
2013-06-14 12:19:00,77.7,64.1,30.10,North,353,2.7,4.5,63,0.00,,CLR,0.00,VWS V14.01,2013-06-14 17:19:00,
2013-06-14 12:24:00,78.3,64.6,30.10,NNW,343,6.3,6.3,63,0.00,,CLR,0.00,VWS V14.01,2013-06-14 17:24:00,
2013-06-14 12:30:00,78.3,64.6,30.10,WNW,294,0.0,6.3,63,0.00,,CLR,0.00,VWS V14.01,2013-06-14 17:30:00,
2013-06-14 12:35:00,78.6,65.0,30.10,East,85,3.1,5.8,63,0.00,,CLR,0.00,VWS V14.01,2013-06-14 17:35:00,
2013-06-14 12:40:00,79.2,63.8,30.10,NW,304,0.0,3.6,60,0.00,,CLR,0.00,VWS V14.01,2013-06-14 17:40:00,
2013-06-14 12:45:00,79.2,63.8,30.10,NNW,339,0.0,5.4,60,0.00,,CLR,0.00,VWS V14.01,2013-06-14 17:45:00,
2013-06-14 12:50:00,78.8,63.5,30.10,SE,130,0.0,0.0,60,0.00,,CLR,0.00,VWS V14.01,2013-06-14 17:50:00,
2013-06-14 12:55:00,79.3,64.0,30.10,NNW,338,3.1,4.9,60,0.00,,CLR,0.00,VWS V14.01,2013-06-14 17:55:00,
2013-06-14 13:00:00,80.1,64.7,30.10,ESE,104,4.9,6.7,60,0.00,,CLR,0.00,VWS V14.01,2013-06-14 18:00:00,
2013-06-14 13:05:00,79.9,64.5,30.10,North,353,0.0,4.9,60,0.00,,CLR,0.00,VWS V14.01,2013-06-14 18:05:00,
2013-06-14 13:10:00,79.5,64.2,30.10,North,9,0.0,4.9,60,0.00,,CLR,0.00,VWS V14.01,2013-06-14 18:10:00,
2013-06-14 13:15:00,79.2,63.8,30.13,NE,56,4.9,4.9,60,0.00,,CLR,0.00,VWS V14.01,2013-06-14 18:15:00,
2013-06-14 13:20:00,79.2,63.8,30.13,ENE,69,0.0,5.4,60,0.00,,CLR,0.00,VWS V14.01,2013-06-14 18:20:00,
2013-06-14 13:25:00,79.9,64.5,30.13,NE,45,4.0,4.9,60,0.00,,CLR,0.00,VWS V14.01,2013-06-14 18:25:00,
2013-06-14 13:30:00,80.6,65.2,30.10,NE,44,4.0,4.0,60,0.00,,CLR,0.00,VWS V14.01,2013-06-14 18:30:00,
2013-06-14 13:35:00,80.4,65.0,30.10,ENE,78,0.0,0.0,60,0.00,,CLR,0.00,VWS V14.01,2013-06-14 18:35:00,
2013-06-14 13:40:00,80.8,65.4,30.10,East,99,0.0,0.0,60,0.00,,CLR,0.00,VWS V14.01,2013-06-14 18:40:00,
2013-06-14 13:45:00,80.6,65.2,30.10,ENE,64,4.0,4.0,60,0.00,,CLR,0.00,VWS V14.01,2013-06-14 18:45:00,
2013-06-14 13:50:00,80.2,64.9,30.10,North,2,0.0,0.0,60,0.00,,CLR,0.00,VWS V14.01,2013-06-14 18:50:00,
2013-06-14 13:55:00,80.1,64.7,30.10,ENE,60,3.1,6.3,60,0.00,,CLR,0.00,VWS V14.01,2013-06-14 18:55:00,
2013-06-14 14:00:00,79.5,64.2,30.10,WNW,303,3.6,7.6,60,0.00,,CLR,0.00,VWS V14.01,2013-06-14 19:00:00,
2013-06-14 14:05:00,79.3,64.0,30.10,NNE,32,4.9,6.3,60,0.00,,CLR,0.00,VWS V14.01,2013-06-14 19:05:00,
2013-06-14 14:11:00,79.0,63.7,30.10,NW,317,2.7,3.6,60,0.00,,CLR,0.00,VWS V14.01,2013-06-14 19:11:00,
2013-06-14 14:16:00,79.0,63.7,30.10,NE,50,0.0,3.1,60,0.00,,CLR,0.00,VWS V14.01,2013-06-14 19:16:00,
2013-06-14 14:21:00,79.2,63.8,30.10,NNW,339,3.6,4.0,60,0.00,,CLR,0.00,VWS V14.01,2013-06-14 19:21:00,
2013-06-14 14:26:00,79.9,64.5,30.10,NNE,15,3.1,4.9,60,0.00,,CLR,0.00,VWS V14.01,2013-06-14 19:26:00,
2013-06-14 14:31:00,80.2,64.9,30.10,NE,38,0.0,2.7,60,0.00,,CLR,0.00,VWS V14.01,2013-06-14 19:31:00,
2013-06-14 14:36:00,80.4,65.0,30.10,East,99,0.0,2.7,60,0.00,,CLR,0.00,VWS V14.01,2013-06-14 19:36:00,
2013-06-14 14:41:00,80.4,65.0,30.10,North,0,2.2,4.0,60,0.00,,CLR,0.00,VWS V14.01,2013-06-14 19:41:00,
2013-06-14 14:46:00,80.2,64.9,30.10,ENE,63,0.0,4.9,60,0.00,,CLR,0.00,VWS V14.01,2013-06-14 19:46:00,
2013-06-14 14:51:00,80.2,64.9,30.10,ESE,113,0.0,5.8,60,0.00,,CLR,0.00,VWS V14.01,2013-06-14 19:51:00,
2013-06-14 14:56:00,79.9,64.5,30.10,ENE,77,0.0,0.0,60,0.00,,CLR,0.00,VWS V14.01,2013-06-14 19:56:00,
2013-06-14 15:01:00,80.1,64.7,30.10,ESE,109,0.0,0.0,60,0.00,,CLR,0.00,VWS V14.01,2013-06-14 20:01:00,
2013-06-14 15:07:00,80.1,64.7,30.10,East,98,3.1,4.0,60,0.00,,CLR,0.00,VWS V14.01,2013-06-14 20:07:00,
2013-06-14 15:12:00,79.7,64.4,30.10,SE,130,0.0,3.1,60,0.00,,CLR,0.00,VWS V14.01,2013-06-14 20:12:00,
2013-06-14 15:17:00,79.5,64.2,30.07,NNE,20,0.0,0.0,60,0.00,,CLR,0.00,VWS V14.01,2013-06-14 20:17:00,
2013-06-14 15:22:00,80.4,65.0,30.07,NE,46,0.0,3.1,60,0.00,,CLR,0.00,VWS V14.01,2013-06-14 20:22:00,
2013-06-14 15:27:00,81.0,65.5,30.07,NW,320,3.1,4.9,60,0.00,,CLR,0.00,VWS V14.01,2013-06-14 20:27:00,
2013-06-14 15:32:00,81.0,65.5,30.07,NE,37,0.0,0.0,60,0.00,,CLR,0.00,VWS V14.01,2013-06-14 20:32:00,
2013-06-14 15:37:00,80.8,65.4,30.07,NNE,15,0.0,0.0,60,0.00,,CLR,0.00,VWS V14.01,2013-06-14 20:37:00,
2013-06-14 15:42:00,80.6,65.2,30.07,SSE,153,3.6,3.6,60,0.00,,CLR,0.00,VWS V14.01,2013-06-14 20:42:00,
2013-06-14 15:47:00,79.9,64.5,30.07,East,100,5.4,5.4,60,0.00,,CLR,0.00,VWS V14.01,2013-06-14 20:47:00,
2013-06-14 15:52:00,79.3,64.0,30.07,SSW,195,0.0,3.6,60,0.00,,CLR,0.00,VWS V14.01,2013-06-14 20:52:00,
2013-06-14 15:57:00,79.5,64.2,30.07,ENE,75,0.0,4.0,60,0.00,,CLR,0.00,VWS V14.01,2013-06-14 20:57:00,
2013-06-14 16:02:00,79.5,64.2,30.04,SE,129,3.1,3.1,60,0.00,,CLR,0.00,VWS V14.01,2013-06-14 21:02:00,
2013-06-14 16:07:00,79.3,64.0,30.04,ENE,75,0.0,4.0,60,0.00,,CLR,0.00,VWS V14.01,2013-06-14 21:07:00,
2013-06-14 16:13:00,79.3,64.0,30.04,SSW,199,0.0,4.0,60,0.00,,CLR,0.00,VWS V14.01,2013-06-14 21:13:00,
2013-06-14 16:18:00,79.2,63.8,30.04,South,185,0.0,0.0,60,0.00,,CLR,0.00,VWS V14.01,2013-06-14 21:18:00,
2013-06-14 16:23:00,79.3,64.0,30.04,East,96,0.0,0.0,60,0.00,,CLR,0.00,VWS V14.01,2013-06-14 21:23:00,
2013-06-14 16:28:00,79.2,63.8,30.04,NE,49,2.7,4.0,60,0.00,,CLR,0.00,VWS V14.01,2013-06-14 21:28:00,
2013-06-14 16:33:00,79.3,64.0,30.04,SE,137,0.0,4.9,60,0.00,,CLR,0.00,VWS V14.01,2013-06-14 21:33:00,
2013-06-14 16:38:00,79.3,64.0,30.04,SE,137,4.0,4.0,60,0.00,,CLR,0.00,VWS V14.01,2013-06-14 21:38:00,
2013-06-14 16:43:00,78.8,63.5,30.04,East,95,0.0,6.3,60,0.00,,CLR,0.00,VWS V14.01,2013-06-14 21:43:00,
2013-06-14 16:48:00,78.4,64.8,30.01,South,171,0.0,3.1,63,0.00,,CLR,0.00,VWS V14.01,2013-06-14 21:48:00,
2013-06-14 16:53:00,78.8,63.5,30.01,SSE,165,0.0,0.0,60,0.00,,CLR,0.00,VWS V14.01,2013-06-14 21:53:00,
2013-06-14 16:58:00,79.2,63.8,30.01,South,185,3.1,3.1,60,0.00,,CLR,0.00,VWS V14.01,2013-06-14 21:58:00,
2013-06-14 17:03:00,79.7,64.4,30.01,East,80,0.0,0.0,60,0.00,,CLR,0.00,VWS V14.01,2013-06-14 22:03:00,
2013-06-14 17:08:00,79.9,64.5,30.01,ENE,71,0.0,5.8,60,0.00,,CLR,0.00,VWS V14.01,2013-06-14 22:08:00,
2013-06-14 17:14:00,79.9,64.5,30.01,SSW,206,0.0,5.4,60,0.00,,CLR,0.00,VWS V14.01,2013-06-14 22:14:00,
2013-06-14 17:19:00,79.7,64.4,29.98,ENE,73,2.2,5.4,60,0.00,,CLR,0.00,VWS V14.01,2013-06-14 22:19:00,
2013-06-14 17:24:00,79.9,64.5,29.98,ENE,68,0.0,5.4,60,0.00,,CLR,0.00,VWS V14.01,2013-06-14 22:24:00,
2013-06-14 17:29:00,80.2,64.9,29.98,East,101,0.0,5.4,60,0.00,,CLR,0.00,VWS V14.01,2013-06-14 22:29:00,
2013-06-14 17:34:00,80.4,65.0,29.98,NE,34,0.0,4.9,60,0.00,,CLR,0.00,VWS V14.01,2013-06-14 22:34:00,
2013-06-14 17:39:00,81.1,65.7,29.98,NE,37,0.0,4.9,60,0.00,,CLR,0.00,VWS V14.01,2013-06-14 22:39:00,
2013-06-14 17:44:00,82.0,66.6,29.98,NE,55,0.0,4.9,60,0.00,,CLR,0.00,VWS V14.01,2013-06-14 22:44:00,
2013-06-14 17:49:00,82.6,65.3,29.98,ENE,64,0.0,3.1,56,0.00,,CLR,0.00,VWS V14.01,2013-06-14 22:49:00,
2013-06-14 17:54:00,82.6,65.3,29.98,ESE,107,2.2,5.4,56,0.00,,CLR,0.00,VWS V14.01,2013-06-14 22:54:00,
2013-06-14 17:59:00,81.7,66.2,29.98,NE,40,0.0,5.8,60,0.00,,CLR,0.00,VWS V14.01,2013-06-14 22:59:00,
2013-06-14 18:05:00,81.9,66.4,29.98,East,96,0.0,2.7,60,0.00,,CLR,0.00,VWS V14.01,2013-06-14 23:05:00,
2013-06-14 18:10:00,81.7,66.2,29.98,ENE,58,0.0,2.7,60,0.00,,CLR,0.00,VWS V14.01,2013-06-14 23:10:00,
2013-06-14 18:15:00,80.8,65.4,29.98,North,0,0.0,3.1,60,0.00,,CLR,0.00,VWS V14.01,2013-06-14 23:15:00,
2013-06-14 18:20:00,79.9,64.5,29.98,East,89,0.0,0.0,60,0.00,,CLR,0.00,VWS V14.01,2013-06-14 23:20:00,
2013-06-14 18:25:00,79.3,64.0,29.98,ESE,103,0.0,0.0,60,0.00,,CLR,0.00,VWS V14.01,2013-06-14 23:25:00,
2013-06-14 18:30:00,79.0,63.7,29.98,SE,139,0.0,0.0,60,0.00,,CLR,0.00,VWS V14.01,2013-06-14 23:30:00,
2013-06-14 18:35:00,78.8,63.5,29.98,SE,140,0.0,0.0,60,0.00,,CLR,0.00,VWS V14.01,2013-06-14 23:35:00,
2013-06-14 18:40:00,78.6,65.0,29.98,SE,140,0.0,0.0,63,0.00,,CLR,0.00,VWS V14.01,2013-06-14 23:40:00,
2013-06-14 18:45:00,78.6,65.0,29.98,SE,140,0.0,0.0,63,0.00,,CLR,0.00,VWS V14.01,2013-06-14 23:45:00,
2013-06-14 18:50:00,78.6,65.0,29.98,SE,140,0.0,0.0,63,0.00,,CLR,0.00,VWS V14.01,2013-06-14 23:50:00,
2013-06-14 18:55:00,78.4,64.8,29.98,SE,140,0.0,0.0,63,0.00,,CLR,0.00,VWS V14.01,2013-06-14 23:55:00,
2013-06-14 19:00:00,78.3,64.6,30.01,South,191,0.0,0.0,63,0.00,,CLR,0.00,VWS V14.01,2013-06-15 00:00:00,
2013-06-14 19:05:00,78.1,64.5,30.01,SSW,210,0.0,0.0,63,0.00,,CLR,0.00,VWS V14.01,2013-06-15 00:05:00,
2013-06-14 19:10:00,77.7,64.1,30.01,South,174,0.0,0.0,63,0.00,,CLR,0.00,VWS V14.01,2013-06-15 00:10:00,
2013-06-14 19:15:00,77.5,64.0,30.01,SSE,167,0.0,0.0,63,0.00,,CLR,0.00,VWS V14.01,2013-06-15 00:15:00,
2013-06-14 19:21:00,77.2,63.6,30.01,SSE,167,0.0,0.0,63,0.00,,CLR,0.00,VWS V14.01,2013-06-15 00:21:00,
2013-06-14 19:26:00,77.0,63.5,30.01,South,190,0.0,0.0,63,0.00,,CLR,0.00,VWS V14.01,2013-06-15 00:26:00,
2013-06-14 19:31:00,76.8,63.3,30.01,SSE,148,0.0,0.0,63,0.00,,CLR,0.00,VWS V14.01,2013-06-15 00:31:00,
2013-06-14 19:36:00,76.8,63.3,30.01,SSE,152,0.0,0.0,63,0.00,,CLR,0.00,VWS V14.01,2013-06-15 00:36:00,
2013-06-14 19:41:00,76.5,62.9,30.01,SSE,152,0.0,0.0,63,0.00,,CLR,0.00,VWS V14.01,2013-06-15 00:41:00,
2013-06-14 19:46:00,76.3,62.8,29.98,SSE,152,0.0,0.0,63,0.00,,CLR,0.00,VWS V14.01,2013-06-15 00:46:00,
2013-06-14 19:51:00,76.1,62.6,29.98,SSE,152,0.0,0.0,63,0.00,,CLR,0.00,VWS V14.01,2013-06-15 00:51:00,
2013-06-14 19:56:00,75.9,62.4,29.98,SSE,152,0.0,0.0,63,0.00,,CLR,0.00,VWS V14.01,2013-06-15 00:56:00,
2013-06-14 20:01:00,75.6,62.1,29.98,SSE,152,0.0,0.0,63,0.00,,CLR,0.00,VWS V14.01,2013-06-15 01:01:00,
2013-06-14 20:06:00,75.4,61.9,29.98,SSE,152,0.0,0.0,63,0.00,,CLR,0.00,VWS V14.01,2013-06-15 01:06:00,
2013-06-14 20:11:00,75.0,61.6,29.98,SSE,152,0.0,0.0,63,0.00,,CLR,0.00,VWS V14.01,2013-06-15 01:11:00,
2013-06-14 20:17:00,74.8,61.4,30.01,SSE,152,0.0,0.0,63,0.00,,CLR,0.00,VWS V14.01,2013-06-15 01:17:00,
2013-06-14 20:22:00,74.3,60.9,30.01,SSE,152,0.0,0.0,63,0.00,,CLR,0.00,VWS V14.01,2013-06-15 01:22:00,
2013-06-14 20:27:00,73.9,60.6,30.01,SSE,152,0.0,0.0,63,0.00,,CLR,0.00,VWS V14.01,2013-06-15 01:27:00,
2013-06-14 20:32:00,73.8,60.4,30.01,SSE,152,0.0,0.0,63,0.00,,CLR,0.00,VWS V14.01,2013-06-15 01:32:00,
2013-06-14 20:37:00,73.4,56.8,30.01,SSE,152,0.0,0.0,56,0.00,,CLR,0.00,VWS V14.01,2013-06-15 01:37:00,
2013-06-14 20:42:00,73.0,56.4,30.01,SSE,152,0.0,0.0,56,0.00,,CLR,0.00,VWS V14.01,2013-06-15 01:42:00,
2013-06-14 20:47:00,72.9,56.3,30.01,SSE,152,0.0,0.0,56,0.00,,CLR,0.00,VWS V14.01,2013-06-15 01:47:00,
2013-06-14 20:52:00,72.7,56.1,30.01,SSE,152,0.0,0.0,56,0.00,,CLR,0.00,VWS V14.01,2013-06-15 01:52:00,
2013-06-14 20:57:00,72.5,55.9,30.01,SSE,152,0.0,0.0,56,0.00,,CLR,0.00,VWS V14.01,2013-06-15 01:57:00,
2013-06-14 21:02:00,72.3,55.8,30.01,SSE,152,0.0,0.0,56,0.00,,CLR,0.00,VWS V14.01,2013-06-15 02:02:00,
2013-06-14 21:07:00,72.3,55.8,30.01,SSE,152,0.0,0.0,56,0.00,,CLR,0.00,VWS V14.01,2013-06-15 02:07:00,
2013-06-14 21:12:00,72.0,55.4,30.01,SSE,152,0.0,0.0,56,0.00,,CLR,0.00,VWS V14.01,2013-06-15 02:12:00,
2013-06-14 21:18:00,71.8,55.3,30.01,SSE,152,0.0,0.0,56,0.00,,CLR,0.00,VWS V14.01,2013-06-15 02:18:00,
2013-06-14 21:23:00,71.8,55.3,30.01,SSE,152,0.0,0.0,56,0.00,,CLR,0.00,VWS V14.01,2013-06-15 02:23:00,
2013-06-14 21:28:00,71.6,55.1,30.01,SSE,152,0.0,0.0,56,0.00,,CLR,0.00,VWS V14.01,2013-06-15 02:28:00,
2013-06-14 21:33:00,71.6,55.1,30.01,SSE,152,0.0,0.0,56,0.00,,CLR,0.00,VWS V14.01,2013-06-15 02:33:00,
2013-06-14 21:38:00,71.6,55.1,30.01,SSE,152,0.0,0.0,56,0.00,,CLR,0.00,VWS V14.01,2013-06-15 02:38:00,
2013-06-14 21:43:00,71.4,56.6,30.01,SSE,152,0.0,0.0,60,0.00,,CLR,0.00,VWS V14.01,2013-06-15 02:43:00,
2013-06-14 21:48:00,71.2,56.4,30.01,SSE,152,0.0,0.0,60,0.00,,CLR,0.00,VWS V14.01,2013-06-15 02:48:00,
2013-06-14 21:53:00,71.2,56.4,30.01,SSE,152,0.0,0.0,60,0.00,,CLR,0.00,VWS V14.01,2013-06-15 02:53:00,
2013-06-14 21:58:00,71.2,56.4,30.01,SSE,152,0.0,0.0,60,0.00,,CLR,0.00,VWS V14.01,2013-06-15 02:58:00,
2013-06-14 22:04:00,71.2,56.4,30.01,SSE,152,0.0,0.0,60,0.00,,CLR,0.00,VWS V14.01,2013-06-15 03:04:00,
2013-06-14 22:09:00,71.4,56.6,30.01,SSE,152,0.0,0.0,60,0.00,,CLR,0.00,VWS V14.01,2013-06-15 03:09:00,
2013-06-14 22:14:00,71.2,56.4,30.01,SSE,152,0.0,0.0,60,0.00,,CLR,0.00,VWS V14.01,2013-06-15 03:14:00,
2013-06-14 22:19:00,71.1,56.3,29.98,SSE,152,0.0,0.0,60,0.00,,CLR,0.00,VWS V14.01,2013-06-15 03:19:00,
2013-06-14 22:24:00,71.1,56.3,29.98,SSE,152,0.0,0.0,60,0.00,,CLR,0.00,VWS V14.01,2013-06-15 03:24:00,
2013-06-14 22:29:00,71.1,56.3,29.98,SSE,152,0.0,0.0,60,0.00,,CLR,0.00,VWS V14.01,2013-06-15 03:29:00,
2013-06-14 22:34:00,70.9,56.1,29.98,SSE,152,0.0,0.0,60,0.00,,CLR,0.00,VWS V14.01,2013-06-15 03:34:00,
2013-06-14 22:39:00,70.7,55.9,29.98,SSE,152,0.0,0.0,60,0.00,,CLR,0.00,VWS V14.01,2013-06-15 03:39:00,
2013-06-14 22:44:00,70.9,56.1,29.98,SSE,152,0.0,0.0,60,0.00,,CLR,0.00,VWS V14.01,2013-06-15 03:44:00,
2013-06-14 22:49:00,70.9,56.1,29.98,SSE,152,0.0,0.0,60,0.00,,CLR,0.00,VWS V14.01,2013-06-15 03:49:00,
2013-06-14 22:54:00,70.9,56.1,29.98,SSE,152,0.0,0.0,60,0.00,,CLR,0.00,VWS V14.01,2013-06-15 03:54:00,
2013-06-14 23:00:00,70.9,56.1,29.98,SSE,152,0.0,0.0,60,0.00,,CLR,0.00,VWS V14.01,2013-06-15 04:00:00,
2013-06-14 23:01:00,70.9,56.1,29.98,SSE,152,0.0,0.0,60,0.00,,CLR,0.00,VWS V14.01,2013-06-15 04:01:00,
2013-06-14 23:02:00,70.9,56.1,29.98,SSE,152,0.0,0.0,60,0.00,,CLR,0.00,VWS V14.01,2013-06-15 04:02:00,
2013-06-14 23:03:00,70.9,56.1,29.98,SSE,152,0.0,0.0,60,0.00,,CLR,0.00,VWS V14.01,2013-06-15 04:03:00,
2013-06-14 23:08:00,70.9,56.1,29.98,SSE,152,0.0,0.0,60,0.00,,CLR,0.00,VWS V14.01,2013-06-15 04:08:00,
2013-06-14 23:13:00,70.9,56.1,29.98,SSE,152,0.0,0.0,60,0.00,,CLR,0.00,VWS V14.01,2013-06-15 04:13:00,
2013-06-14 23:18:00,70.9,56.1,29.98,SSE,152,0.0,0.0,60,0.00,,CLR,0.00,VWS V14.01,2013-06-15 04:18:00,
2013-06-14 23:23:00,70.9,56.1,29.98,SE,125,0.0,0.0,60,0.00,,CLR,0.00,VWS V14.01,2013-06-15 04:23:00,
2013-06-14 23:29:00,70.9,56.1,29.98,SE,125,0.0,0.0,60,0.00,,CLR,0.00,VWS V14.01,2013-06-15 04:29:00,
2013-06-14 23:34:00,70.7,55.9,29.98,SE,125,0.0,0.0,60,0.00,,CLR,0.00,VWS V14.01,2013-06-15 04:34:00,
2013-06-14 23:39:00,70.7,55.9,29.98,SE,125,0.0,0.0,60,0.00,,CLR,0.00,VWS V14.01,2013-06-15 04:39:00,
2013-06-14 23:44:00,70.7,55.9,29.98,SE,130,0.0,0.0,60,0.00,,CLR,0.00,VWS V14.01,2013-06-15 04:44:00,
2013-06-14 23:49:00,70.9,56.1,29.98,SE,131,0.0,0.0,60,0.00,,CLR,0.00,VWS V14.01,2013-06-15 04:49:00,
2013-06-14 23:54:00,70.9,56.1,29.98,SE,132,0.0,0.0,60,0.00,,CLR,0.00,VWS V14.01,2013-06-15 04:54:00,
2013-06-14 23:59:00,70.9,56.1,29.98,SSE,165,0.0,0.0,60,0.00,,CLR,0.00,VWS V14.01,2013-06-15 04:59:00,